Preview of NWS' New Version of Forecast
This preview is not operational and should not be used for support decisions.

Regional Weather Roundup (RWR)

Issued by National Weather Service (NWS)

                            
000
ASUS45 KBOU 231410
RWRCO 

WEATHER ROUNDUP FOR COLORADO
NATIONAL WEATHER SERVICE DENVER/BOULDER CO
700 AM MST SAT FEB 23 2019

NOTE: "FAIR" INDICATES FEW OR NO CLOUDS BELOW 12000 FEET WITH NO
SIGNIFICANT WEATHER AND/OR OBSTRUCTIONS TO VISIBILITY.

COZ001>005-013-030-031-231500-
...NORTHWEST COLORADO...
  
CITY           SKY/WX    TMP DP  RH WIND       PRES   REMARKS
CRAIG          FAIR     -10 -13  86 CALM      30.03R                  
HAYDEN         FAIR      -1  -5  82 CALM      30.01R                  
MEEKER         FAIR      -7 -12  79 NE3       30.02R                  
RANGELY        FAIR      -4  -8  81 NE5       30.09S WCI -14          
RABBIT EARS PA LGT SNOW  -4  -6  92 MISG      29.73S                  
STEAMBOAT SPGS FAIR       4   2  92 CALM      29.98R                  
WALDEN         FAIR      -2  -8  78 E9        29.85R WCI -18          
$$

COZ006>008-011-231500-
...WEST CENTRAL VALLEYS...
  
CITY           SKY/WX    TMP DP  RH WIND       PRES   REMARKS
GRAND JUNCTION FAIR      17   9  70 N5        30.08R WCI  10          
MONTROSE       MOCLDY    11   4  73 CALM      30.07R                  
EAGLE          MOCLDY     6   3  87 E8        29.99R WCI  -7          
RIFLE          FAIR      11   3  70 MISG      30.05R                  
DELTA          MOCLDY    20  13  73 N8        30.05R WCI  10          
NUCLA          FAIR      10   5  79 E8        30.07R WCI  -1          
$$

COZ017>023-064>068-231500-
...SOUTHWEST COLORADO...
  
CITY           SKY/WX    TMP DP  RH WIND       PRES   REMARKS
DURANGO        FAIR      15  11  83 SW10      29.86R WCI   2          
CORTEZ         FAIR      18  10  71 NW7       30.02R WCI   9          
PAGOSA SPRINGS CLOUDY    22  22 100 CALM      29.83R                  
TELLURIDE      SNOW       9   7  92 W3        29.90R VSB 1/2          
WOLF CREEK PAS CLOUDY     5   3  92 NW5       29.77R WCI  -4          
$$

COZ009-010-012-014-032>034-037-058>063-231500-
...CENTRAL COLORADO...
  
CITY           SKY/WX    TMP DP  RH WIND       PRES   REMARKS
ASPEN          FLURRIES  13   7  77 N6        29.90R WCI   4          
BUENA VISTA    FAIR      17   4  56 NW21G29   29.77R WCI   1          
COPPER MTN     HAZE       1  -6  71 W14       29.72R VSB 3/4 WCI -17  
BERTHOUD PASS  CLOUDY    -6 -15  65 NE10G29   29.65R WCI -23          
COTTONWOOD PAS FAIR      16   5  62 W12G24    29.71R WCI   3          
GUNNISON       FAIR      12   6  77 W12       29.88R WCI  -2          
GRANBY         CLOUDY     8   0  69 CALM      29.87R                  
KREMMLING      FAIR       7   0  72 CALM      29.93R                  
LEADVILLE      FAIR       1  -3  83 N10       29.78R WCI -15          
MONARCH PASS   CLOUDY     1  -4  78 MISG      29.78S                  
SALIDA         FAIR      23  11  61 NW10G16   29.84R WCI  12          
SUNLIGHT       FAIR     N/A N/A N/A NW7       29.86R                  
WILKERSON PASS CLOUDY   N/A N/A N/A N14G23    29.69R                  
$$

COZ069>075-231500-
...SAN LUIS VALLEY/SANGRE DE CRISTO MOUNTAINS...
  
CITY           SKY/WX    TMP DP  RH WIND       PRES   REMARKS
ALAMOSA        CLOUDY    25  12  58 NW20G29   29.72R WCI  11          
DEL NORTE      CLOUDY    23   9  54 W12G21    29.75R WCI  12          
LA VETA PASS   NOT AVBL                                               
SAGUACHE       FAIR      19  10  68 CALM      29.77R                  
$$

COZ035-036-038>040-231500-
...NORTHERN COLORADO FRONT RANGE...
  
CITY           SKY/WX    TMP DP  RH WIND       PRES   REMARKS
DENVER INTL AP MOCLDY    21  20  96 SW7       29.79R FOG     WCI  12  
AURORA         CLOUDY    20  20 100 SW3       29.80R FOG              
FRONT RANGE AP CLOUDY    21  19  93 CALM      29.80  FOG              
ERIE MUNI ARPT FAIR      17  16  94 CALM      29.86R FOG              
BOULDER MUN AP FAIR      21  21 100 SW3       29.79R FOG              
CENTENNIAL     CLOUDY    20  19  96 SW3       29.78R                  
BROOMFIELD     MOCLDY    19  19 100 CALM      29.79R                  
FORT COLLINS   FAIR      18  16  92 SE3       29.80S                  
LONGMONT       FAIR      15  11  87 CALM      29.83R FOG              
$$

COZ041-046-047-076>085-087-088-231500-
...PIKES PEAK/PALMER DIVIDE AND SOUTHERN FOOTHILLS...
  
CITY           SKY/WX    TMP DP  RH WIND       PRES   REMARKS
COLO. SPRINGS  CLOUDY    25  18  74 NW15      29.74R WCI  13          
A. F. ACADEMY  PTCLDY    22  17  81 N18       29.73R WCI   7          
SCHRIEVER AFB  NOT AVBL                                               
CHEYENNE MTN   CLOUDY    25  16  67 NW20G28   29.64R WCI  11          
ELLICOTT       LGT SNOW N/A N/A N/A N22G30    29.70R                  
FALCON         CLOUDY    21  16  81 N10       29.72R WCI   9          
FORT CARSON    FAIR      27  19  71 N14       29.72R WCI  15          
LIMON          LGT SNOW  20  18  92 N22       29.75R FOG     WCI   3  
MONUMENT HILL  CLOUDY    18  14  86 NW9       29.75S FOG     WCI   6  
CANON CITY     NOT AVBL                                               
WALSENBURG     NOT AVBL                                               
TRINIDAD       HVY SNOW  24  22  91 N25G37    29.71R VSB 1/4 WCI   8  
$$

COZ042>045-048>051-090-091-231500-
...NORTHEAST COLORADO...
  
CITY           SKY/WX    TMP DP  RH WIND       PRES   REMARKS
GREELEY ARPT   FAIR      21  12  68 W5        29.82R WCI  15          
AKRON          CLOUDY    21  18  88 N10       29.79S WCI  10          
BURLINGTON     FOG       24  22  91 N20G35    29.73R VSB 3/4 WCI  10  
WRAY           LGT SNOW  27  27 100 N16       29.83R VSB 3/4 WCI  14  
YUMA           LGT SNOW  23  21  93 N8        29.81S VSB 1   WCI  14  
STERLING       CLOUDY    23  19  86 N3        29.83R                  
HOLYOKE        CLOUDY    27  23  86 N6        29.85R WCI  20          
FORT MORGAN      N/A     21  15  76 MISG      29.83S                  
$$

COZ086-089-092>099-231500-
...SOUTHEAST COLORADO...
  
CITY           SKY/WX    TMP DP  RH WIND       PRES   REMARKS
PUEBLO         CLOUDY    30  22  72 N15       29.77R WCI  19          
LA JUNTA       FOG       27  24  89 N28       29.73R VSB 1/2 WCI  11  
LAMAR          FOG       28  25  88 N25G40    29.67R VSB 1/4 WCI  13  
SPRINGFIELD      N/A     29  29 100 N21G32    29.57R WCI  16          
$$